Flag for United Kingdom Weather past 2 weeks in Plymouth, England, United Kingdom

Now
54 °F

Scattered clouds.


Feels Like: 52 °F
Forecast: 43 / 54 °F
Wind: 7 mph from South

Location: Exeter Airport

Current Time: Apr 25, 2015 at 8:10:50 PM

Latest Report: Apr 25, 2015 at 7:20 PM


Visibility: N/A

Pressure: 29.68 "Hg

Humidity: 94%

Dew point: 52 °F

Location of PlymouthLocation

Historic Weather in Plymouth — Graph

°F

Plymouth temperature yesterday

Maximum temperature yesterday: 59 °F (at 11:50 AM)
Minimum temperature yesterday: 39 °F (at 12:20 AM)
Average temperature yesterday: 51 °F

Past Weeks' High & Low Weather Summary

 TemperatureHumidityPressure
High73 °F (Apr 15, 3:50 PM)100% (Apr 13, 9:50 PM)30.54 "Hg (Apr 13, 9:50 PM)
Low32 °F (Apr 20, 6:20 AM)37% (Apr 21, 2:20 PM)29.68 "Hg (Apr 25, 6:20 AM)
Average52 °F73%30.16 "Hg
* Reported Apr 10 6:20 PM — Apr 25 6:50 PM, Plymouth, Weather by CustomWeather, © 2015

Note: Actual official high and low records may vary slightly from our data, if they occured in-between our weather recording intervals... More about our weather records

Advertising

Plymouth weather history for previous 24 hours

 ConditionsComfort  
Time TempWeatherWind HumidityBarometerVisibility
6:50 PM
Sat, Apr 25
54 °FScattered clouds.8 mph94%29.68 "HgN/A
6:20 PM54 °FScattered clouds.10 mph94%29.68 "HgN/A
5:50 PM54 °FScattered showers. Scattered clouds.10 mph94%29.68 "HgN/A
5:20 PM54 °FScattered clouds.12 mph94%29.68 "HgN/A
4:50 PM52 °FRain showers. Scattered clouds.12 mph100%29.68 "Hg6 mi
4:20 PM54 °FRain showers. Scattered clouds.10 mph94%29.68 "Hg5 mi
3:50 PM55 °FSprinkles. Scattered clouds.9 mph88%29.68 "HgN/A
3:20 PM55 °FSprinkles. Scattered clouds.10 mph88%29.68 "HgN/A
2:50 PM55 °FSprinkles. Scattered clouds.10 mph88%29.68 "HgN/A
2:20 PM57 °FSprinkles. Scattered clouds.13 mph82%29.68 "HgN/A
1:50 PM57 °FSprinkles. Scattered clouds.13 mph72%29.68 "HgN/A
1:20 PM57 °FScattered clouds.9 mph72%29.68 "HgN/A
12:50 PM57 °FScattered clouds.12 mph72%29.68 "HgN/A
12:20 PM59 °FScattered clouds.12 mph68%29.71 "HgN/A
11:50 AM57 °FScattered clouds.12 mph77%29.71 "HgN/A
11:20 AM57 °FScattered clouds.10 mph77%29.71 "HgN/A
10:50 AM55 °FScattered clouds.12 mph82%29.71 "HgN/A
10:20 AM55 °FScattered clouds.9 mph82%29.71 "HgN/A
9:50 AM54 °FPartly sunny.9 mph88%29.71 "HgN/A
9:20 AM54 °FPartly sunny.10 mph88%29.71 "HgN/A
8:50 AM54 °FScattered clouds.7 mph88%29.71 "HgN/A
8:20 AM52 °FPartly sunny.7 mph94%29.71 "HgN/A
7:50 AM52 °FPartly sunny.6 mph94%29.71 "HgN/A
7:20 AM50 °FPartly sunny.6 mph100%29.68 "HgN/A
6:50 AM50 °FPassing clouds.6 mph94%29.68 "HgN/A
6:20 AM50 °FPassing clouds.6 mph94%29.68 "HgN/A
1:20 AM52 °FLight rain. Passing clouds.8 mph94%29.74 "HgN/A
12:50 AM52 °FLight rain. Passing clouds.8 mph100%29.74 "HgN/A
12:20 AM52 °FPassing clouds.10 mph94%29.74 "HgN/A
11:50 PM
Fri, Apr 24
52 °FLight rain. Passing clouds.9 mph94%29.77 "HgN/A
11:20 PM52 °FLight rain. Passing clouds.10 mph94%29.77 "HgN/A
10:50 PM52 °FLight rain. Passing clouds.10 mph94%29.77 "HgN/A
10:20 PM52 °FLight rain. Passing clouds.12 mph94%29.77 "HgN/A
9:50 PM52 °FLight rain. Passing clouds.10 mph94%29.77 "HgN/A
9:20 PM52 °FPartly sunny.9 mph94%29.77 "HgN/A
8:50 PM52 °FPartly sunny.10 mph94%29.77 "HgN/A
8:20 PM52 °FPartly sunny.9 mph94%29.80 "HgN/A
Weather by CustomWeather, © 2015

See weather overviewHow to use our weather pages